Flag for France Weather past 2 weeks in Villeurbanne, France

Now
41 °F

Light rain. Passing clouds.


Feels Like: 33 °F
Forecast: 34 / 42 °F
Wind: 15 mph from Northwest

Location: Lyon / Bron

Current Time: Jan 30, 2015 at 3:40:09 AM

Latest Report: Jan 30, 2015 at 3:00 AM


Visibility: N/A

Pressure: 29.12 "Hg

Humidity: 81%

Dew point: 36 °F

Location of VilleurbanneLocation

Historic Weather in Villeurbanne — Graph

°F

Villeurbanne temperature yesterday

Maximum temperature yesterday: 46 °F (at 11:30 PM)
Minimum temperature yesterday: 39 °F (at 8:30 AM)
Average temperature yesterday: 42 °F

Past Weeks' High & Low Weather Summary

 TemperatureHumidityPressure
High57 °F (Jan 15, 2:30 PM)100% (Jan 18, 10:00 AM)30.42 "Hg (Jan 18, 10:00 AM)
Low27 °F (Jan 18, 5:30 AM)49% (Jan 18, 3:30 PM)29.03 "Hg (Jan 29, 10:00 PM)
Average39 °F80%29.99 "Hg
* Reported Jan 15 2:00 AM — Jan 30 2:30 AM, Villeurbanne, Weather by CustomWeather, © 2014

Note: Actual official high and low records may vary slightly from our data, if they occured in-between our weather recording intervals... More about our weather records

Advertising

Villeurbanne weather history for previous 24 hours

 ConditionsComfort  
Time TempWeatherWind HumidityBarometerVisibility
2:30 AM
Jan 30
43 °FOvercast.7 mph76%29.09 "HgN/A
2:00 AM45 °FMostly cloudy.2 mph66%29.09 "HgN/A
1:30 AM45 °FPassing clouds.8 mph66%29.09 "HgN/A
1:00 AM45 °FPartly cloudy.15 mph66%29.09 "HgN/A
12:30 AM45 °FPassing clouds.13 mph71%29.06 "HgN/A
12:00 AM46 °FPassing clouds.13 mph71%29.06 "HgN/A
11:30 PM
Jan 29
46 °FPartly cloudy.16 mph71%29.03 "HgN/A
11:00 PM43 °FPassing clouds.15 mph87%29.03 "HgN/A
10:30 PM45 °FPassing clouds.20 mph81%29.03 "HgN/A
10:00 PM43 °FLight rain. Mostly cloudy.22 mph93%29.03 "HgN/A
9:30 PM45 °FRain. Mostly cloudy.23 mph87%29.06 "Hg4 mi
9:00 PM43 °FPartly cloudy.21 mph87%29.06 "HgN/A
8:30 PM43 °FLight rain. Partly cloudy.22 mph87%29.09 "HgN/A
8:00 PM45 °FLight rain. Mostly cloudy.18 mph87%29.12 "Hg6 mi
7:30 PM45 °FRain. Mostly cloudy.16 mph87%29.15 "HgN/A
7:00 PM45 °FLight rain. Partly cloudy.14 mph81%29.18 "HgN/A
6:30 PM45 °FPartly cloudy.14 mph81%29.21 "HgN/A
6:00 PM45 °FMostly cloudy.15 mph81%29.24 "HgN/A
5:30 PM45 °FOvercast.16 mph81%29.27 "HgN/A
5:00 PM45 °FMore clouds than sun.17 mph81%29.30 "HgN/A
4:30 PM43 °FMore clouds than sun.15 mph87%29.33 "HgN/A
4:00 PM43 °FMostly cloudy.17 mph87%29.33 "HgN/A
3:30 PM43 °FMostly cloudy.18 mph87%29.36 "HgN/A
3:00 PM43 °FLight rain. Broken clouds.16 mph87%29.39 "HgN/A
2:30 PM43 °FLight rain. Partly sunny.18 mph87%29.42 "HgN/A
2:00 PM41 °FLight rain. More clouds than sun.16 mph93%29.45 "HgN/A
1:30 PM41 °FLight rain. Mostly cloudy.15 mph87%29.47 "HgN/A
1:00 PM41 °FLight rain. Mostly cloudy.15 mph87%29.50 "HgN/A
12:30 PM41 °FLight rain. Mostly cloudy.14 mph87%29.53 "HgN/A
12:00 PM41 °FLight rain. Overcast.13 mph87%29.56 "HgN/A
11:30 AM41 °FLight rain. Broken clouds.12 mph87%29.59 "HgN/A
11:00 AM39 °FLight rain. Cloudy.9 mph93%29.62 "HgN/A
10:30 AM39 °FLight rain. Broken clouds.7 mph93%29.65 "Hg4 mi
10:00 AM39 °FLight rain. Mostly cloudy.7 mph93%29.68 "Hg6 mi
9:30 AM39 °FLight rain. Mostly cloudy.3 mph93%29.68 "Hg5 mi
9:00 AM39 °FLight rain. Partly sunny.5 mph93%29.71 "Hg5 mi
8:30 AM39 °FLight rain. Mostly cloudy.2 mph93%29.71 "Hg6 mi
8:00 AM41 °FLight rain. Mostly cloudy.3 mph87%29.71 "Hg5 mi
7:30 AM41 °FLight rain. Mostly cloudy.3 mph87%29.71 "Hg5 mi
7:00 AM41 °FMostly cloudy.3 mph87%29.74 "HgN/A
6:30 AM41 °FLight rain. Mostly cloudy.2 mph81%29.74 "HgN/A
6:00 AM41 °FLight rain. Mostly cloudy.5 mph87%29.74 "HgN/A
5:30 AM41 °FMostly cloudy.6 mph87%29.74 "HgN/A
5:00 AM41 °FLight rain. Mostly cloudy.7 mph81%29.77 "HgN/A
4:30 AM41 °FLight rain. Mostly cloudy.8 mph81%29.77 "HgN/A
4:00 AM41 °FMostly cloudy.10 mph76%29.77 "HgN/A
3:30 AM41 °FMostly cloudy.13 mph76%29.77 "HgN/A
3:00 AM41 °FPassing clouds.7 mph81%29.77 "HgN/A
Weather by CustomWeather, © 2014

See weather overviewHow to use our weather pages